| time (UTC) | temp F | wind direction | speed MPH | gust MPH | rain 1hr in | rain 24hr in | rain mn in | humidity % | barometer mb |
| 20260505054505 | 56 | 279 | 2.0 | 8.0 | 0.00 | 0.00 | 0.00 | 66 | 1011.3 |
| 20260505054008 | 56 | 261 | 2.0 | 9.0 | 0.00 | 0.00 | 0.00 | 66 | 1011.3 |
| 20260505053505 | 56 | 287 | 3.0 | 6.0 | 0.00 | 0.00 | 0.00 | 65 | 1011.3 |
| 20260505053008 | 56 | 253 | 2.0 | 8.0 | 0.00 | 0.00 | 0.00 | 65 | 1011.3 |
| 20260505052504 | 56 | 154 | 3.0 | 8.0 | 0.00 | 0.00 | 0.00 | 64 | 1011.2 |
| 20260505052008 | 56 | 276 | 2.0 | 8.0 | 0.00 | 0.00 | 0.00 | 64 | 1011.3 |
| 20260505051504 | 56 | 226 | 3.0 | 9.0 | 0.00 | 0.00 | 0.00 | 64 | 1011.3 |
| 20260505051008 | 56 | 294 | 3.0 | 7.0 | 0.00 | 0.00 | 0.00 | 64 | 1011.2 |
| 20260505050504 | 56 | 243 | 2.0 | 10.0 | 0.00 | 0.00 | 0.00 | 64 | 1011.3 |
| 20260505041504 | 57 | 142 | 2.0 | 6.0 | 0.00 | 0.00 | 0.00 | 61 | 1011.5 |
| 20260505041008 | 57 | 158 | 3.0 | 10.0 | 0.00 | 0.00 | 0.00 | 61 | 1011.4 |
| 20260505040505 | 57 | 284 | 2.0 | 9.0 | 0.00 | 0.00 | 0.00 | 60 | 1011.4 |
| 20260505040005 | 57 | 113 | 2.0 | 9.0 | 0.00 | 0.00 | 0.00 | 60 | 1011.3 |
| 20260505035505 | 57 | 153 | 2.0 | 10.0 | 0.00 | 0.00 | 0.00 | 59 | 1011.2 |
| 20260505035009 | 57 | 275 | 4.0 | 10.0 | 0.00 | 0.00 | 0.00 | 59 | 1011.3 |
| 20260505034008 | 58 | 245 | 4.0 | 9.0 | 0.00 | 0.00 | 0.00 | 58 | 1011.3 |
| 20260505033008 | 58 | 304 | 3.0 | 10.0 | 0.00 | 0.00 | 0.00 | 57 | 1011.3 |
| 20260505032504 | 58 | 172 | 2.0 | 12.0 | 0.00 | 0.00 | 0.00 | 56 | 1011.2 |
| 20260505032008 | 58 | 146 | 2.0 | 12.0 | 0.00 | 0.00 | 0.00 | 56 | 1011.2 |
| 20260505031505 | 58 | 100 | 2.0 | 12.0 | 0.00 | 0.00 | 0.00 | 55 | 1011.3 |
| 20260505031008 | 58 | 238 | 3.0 | 9.0 | 0.00 | 0.00 | 0.00 | 55 | 1011.3 |
| 20260505030505 | 58 | 269 | 2.0 | 9.0 | 0.00 | 0.00 | 0.00 | 55 | 1011.2 |
| 20260505025504 | 59 | 230 | 4.0 | 13.0 | 0.00 | 0.00 | 0.00 | 54 | 1011.2 |
| 20260505025009 | 59 | 268 | 2.0 | 13.0 | 0.00 | 0.00 | 0.00 | 53 | 1011.3 |
| 20260505024008 | 59 | 141 | 5.0 | 12.0 | 0.00 | 0.00 | 0.00 | 52 | 1011.3 |
| 20260505023505 | 59 | 227 | 2.0 | 8.0 | 0.00 | 0.00 | 0.00 | 52 | 1011.4 |
| 20260505023008 | 59 | 247 | 5.0 | 9.0 | 0.00 | 0.00 | 0.00 | 51 | 1011.3 |
| 20260505022506 | 60 | 267 | 2.0 | 7.0 | 0.00 | 0.00 | 0.00 | 51 | 1011.3 |
| 20260505022008 | 60 | 263 | 2.0 | 12.0 | 0.00 | 0.00 | 0.00 | 51 | 1011.4 |
| 20260505021504 | 60 | 259 | 2.0 | 7.0 | 0.00 | 0.00 | 0.00 | 51 | 1011.3 |
| 20260505021008 | 60 | 206 | 3.0 | 9.0 | 0.00 | 0.00 | 0.00 | 50 | 1011.3 |
| 20260505015504 | 60 | 231 | 4.0 | 10.0 | 0.00 | 0.00 | 0.00 | 49 | 1011.2 |
| 20260505015008 | 61 | 294 | 4.0 | 10.0 | 0.00 | 0.00 | 0.00 | 49 | 1011.2 |
| 20260505014504 | 61 | 211 | 3.0 | 9.0 | 0.00 | 0.00 | 0.00 | 49 | 1011.2 |
| 20260505013008 | 61 | 263 | 3.0 | 8.0 | 0.00 | 0.00 | 0.00 | 47 | 1011.0 |
| 20260505012504 | 61 | 232 | 5.0 | 14.0 | 0.00 | 0.00 | 0.00 | 47 | 1010.9 |
| 20260505012009 | 61 | 295 | 3.0 | 9.0 | 0.00 | 0.00 | 0.00 | 47 | 1010.8 |
| 20260505011504 | 62 | 184 | 3.0 | 9.0 | 0.00 | 0.00 | 0.00 | 47 | 1010.7 |
| 20260505011008 | 62 | 190 | 2.0 | 12.0 | 0.00 | 0.00 | 0.00 | 46 | 1010.6 |
| 20260505010504 | 62 | 209 | 3.0 | 12.0 | 0.00 | 0.00 | 0.00 | 46 | 1010.5 |
| 20260505010004 | 62 | 311 | 3.0 | 15.0 | 0.00 | 0.00 | 0.00 | 46 | 1010.5 |
| 20260505005504 | 63 | 208 | 3.0 | 12.0 | 0.00 | 0.00 | 0.00 | 45 | 1010.4 |
| 20260505005008 | 63 | 333 | 5.0 | 12.0 | 0.00 | 0.00 | 0.00 | 45 | 1010.3 |
| 20260505004504 | 63 | 95 | 3.0 | 8.0 | 0.00 | 0.00 | 0.00 | 45 | 1010.2 |
| 20260505004008 | 63 | 132 | 3.0 | 8.0 | 0.00 | 0.00 | 0.00 | 45 | 1010.2 |
| 20260505003008 | 64 | 130 | 3.0 | 12.0 | 0.00 | 0.00 | 0.00 | 44 | 1009.9 |
| 20260505002504 | 64 | 292 | 3.0 | 16.0 | 0.00 | 0.00 | 0.00 | 44 | 1009.7 |
| 20260505002009 | 64 | 180 | 5.0 | 10.0 | 0.00 | 0.00 | 0.00 | 44 | 1009.6 |
| 20260505001504 | 64 | 264 | 5.0 | 10.0 | 0.00 | 0.00 | 0.00 | 43 | 1009.4 |
| 20260505001008 | 64 | 199 | 6.0 | 12.0 | 0.00 | 0.00 | 0.00 | 43 | 1009.3 |
| 20260505000004 | 65 | 206 | 3.0 | 17.0 | 0.00 | 0.00 | 0.00 | 43 | 1009.1 |
| 20260504235504 | 65 | 309 | 3.0 | 13.0 | 0.00 | 0.00 | 0.00 | 43 | 1008.9 |
| 20260504235008 | 65 | 173 | 6.0 | 12.0 | 0.00 | 0.00 | 0.00 | 42 | 1008.8 |
| 20260504234504 | 65 | 197 | 6.0 | 16.0 | 0.00 | 0.00 | 0.00 | 42 | 1008.8 |
| 20260504234007 | 66 | 140 | 6.0 | 14.0 | 0.00 | 0.00 | 0.00 | 41 | 1008.8 |
| 20260504233504 | 66 | 153 | 7.0 | 17.0 | 0.00 | 0.00 | 0.00 | 41 | 1008.7 |
| 20260504233008 | 67 | 190 | 3.0 | 8.0 | 0.00 | 0.00 | 0.00 | 40 | 1008.6 |
| 20260504232504 | 67 | 8 | 5.0 | 10.0 | 0.00 | 0.00 | 0.00 | 39 | 1008.5 |
| 20260504232008 | 68 | 187 | 3.0 | 12.0 | 0.00 | 0.00 | 0.00 | 38 | 1008.4 |
| 20260504231504 | 68 | 235 | 4.0 | 10.0 | 0.00 | 0.00 | 0.00 | 37 | 1008.3 |
| 20260504231008 | 68 | 279 | 5.0 | 12.0 | 0.00 | 0.00 | 0.00 | 37 | 1008.0 |
| 20260504230504 | 69 | 250 | 3.0 | 12.0 | 0.00 | 0.00 | 0.00 | 36 | 1007.9 |
| 20260504230004 | 69 | 242 | 5.0 | 18.0 | 0.00 | 0.00 | 0.00 | 35 | 1007.9 |
| 20260504225007 | 71 | 157 | 3.0 | 9.0 | 0.00 | 0.00 | 0.00 | 31 | 1007.7 |
| 20260504224504 | 71 | 232 | 5.0 | 13.0 | 0.00 | 0.00 | 0.00 | 31 | 1007.6 |
| 20260504224008 | 71 | 228 | 3.0 | 8.0 | 0.00 | 0.00 | 0.00 | 31 | 1007.5 |
| 20260504223504 | 71 | 265 | 6.0 | 13.0 | 0.00 | 0.00 | 0.00 | 30 | 1007.4 |
| 20260504223008 | 72 | 279 | 5.0 | 9.0 | 0.00 | 0.00 | 0.00 | 30 | 1007.5 |
| 20260504222504 | 72 | 261 | 4.0 | 12.0 | 0.00 | 0.00 | 0.00 | 30 | 1007.4 |
| 20260504222008 | 72 | 246 | 5.0 | 12.0 | 0.00 | 0.00 | 0.00 | 30 | 1007.5 |
| 20260504221504 | 72 | 263 | 6.0 | 14.0 | 0.00 | 0.00 | 0.00 | 30 | 1007.4 |
| 20260504221008 | 72 | 250 | 5.0 | 12.0 | 0.00 | 0.00 | 0.00 | 29 | 1007.4 |
| 20260504220504 | 72 | 268 | 7.0 | 13.0 | 0.00 | 0.00 | 0.00 | 29 | 1007.5 |
| 20260504215009 | 73 | 174 | 6.0 | 13.0 | 0.00 | 0.00 | 0.00 | 29 | 1007.4 |
| 20260504214504 | 73 | 184 | 4.0 | 12.0 | 0.00 | 0.00 | 0.00 | 29 | 1007.5 |
| 20260504213504 | 73 | 267 | 7.0 | 14.0 | 0.00 | 0.00 | 0.00 | 28 | 1007.5 |
| 20260504213009 | 73 | 269 | 5.0 | 12.0 | 0.00 | 0.00 | 0.00 | 28 | 1007.5 |
| 20260504212504 | 73 | 224 | 8.0 | 18.0 | 0.00 | 0.00 | 0.00 | 28 | 1007.6 |
| 20260504211505 | 74 | 150 | 5.0 | 12.0 | 0.00 | 0.00 | 0.00 | 27 | 1007.5 |
| 20260504211008 | 74 | 260 | 5.0 | 9.0 | 0.00 | 0.00 | 0.00 | 28 | 1007.5 |
| 20260504210004 | 73 | 251 | 6.0 | 9.0 | 0.00 | 0.00 | 0.00 | 27 | 1007.5 |
| 20260504205504 | 73 | 258 | 5.0 | 12.0 | 0.00 | 0.00 | 0.00 | 28 | 1007.5 |
| 20260504204504 | 72 | 243 | 6.0 | 16.0 | 0.00 | 0.00 | 0.00 | 28 | 1007.6 |
| 20260504204008 | 72 | 305 | 4.0 | 15.0 | 0.00 | 0.00 | 0.00 | 28 | 1007.5 |
| 20260504203504 | 72 | 224 | 7.0 | 12.0 | 0.00 | 0.00 | 0.00 | 27 | 1007.6 |
| 20260504203008 | 72 | 254 | 6.0 | 13.0 | 0.00 | 0.00 | 0.00 | 27 | 1007.6 |
| 20260504202007 | 73 | 260 | 9.0 | 17.0 | 0.00 | 0.00 | 0.00 | 27 | 1007.7 |
| 20260504201504 | 72 | 251 | 5.0 | 17.0 | 0.00 | 0.00 | 0.00 | 27 | 1007.7 |
| 20260504200504 | 72 | 241 | 7.0 | 15.0 | 0.00 | 0.00 | 0.00 | 27 | 1007.7 |
| 20260504200004 | 72 | 257 | 5.0 | 15.0 | 0.00 | 0.00 | 0.00 | 27 | 1007.7 |
| 20260504195505 | 73 | 270 | 9.0 | 17.0 | 0.00 | 0.00 | 0.00 | 27 | 1007.8 |
| 20260504195008 | 72 | 246 | 5.0 | 17.0 | 0.00 | 0.00 | 0.00 | 27 | 1007.7 |
| 20260504194010 | 72 | 272 | 9.0 | 17.0 | 0.00 | 0.00 | 0.00 | 27 | 1007.8 |
| 20260504193504 | 71 | 272 | 9.0 | 20.0 | 0.00 | 0.00 | 0.00 | 27 | 1007.8 |
| 20260504192504 | 72 | 266 | 7.0 | 12.0 | 0.00 | 0.00 | 0.00 | 27 | 1007.9 |
| 20260504192008 | 71 | 238 | 7.0 | 16.0 | 0.00 | 0.00 | 0.00 | 28 | 1008.0 |
| 20260504191504 | 71 | 250 | 8.0 | 18.0 | 0.00 | 0.00 | 0.00 | 27 | 1008.0 |
| 20260504191008 | 72 | 262 | 10.0 | 18.0 | 0.00 | 0.00 | 0.00 | 27 | 1008.2 |
| 20260504190505 | 72 | 260 | 7.0 | 14.0 | 0.00 | 0.00 | 0.00 | 27 | 1008.1 |
| 20260504185008 | 71 | 288 | 7.0 | 17.0 | 0.00 | 0.00 | 0.00 | 28 | 1008.1 |
| 20260504184009 | 71 | 256 | 5.0 | 12.0 | 0.00 | 0.00 | 0.00 | 29 | 1008.1 |
| 20260504183505 | 71 | 245 | 9.0 | 20.0 | 0.00 | 0.00 | 0.00 | 28 | 1008.1 |
| 20260504182505 | 71 | 282 | 5.0 | 13.0 | 0.00 | 0.00 | 0.00 | 29 | 1008.1 |
| 20260504182008 | 70 | 321 | 6.0 | 17.0 | 0.00 | 0.00 | 0.00 | 29 | 1008.2 |
| 20260504181009 | 70 | 272 | 8.0 | 24.0 | 0.00 | 0.00 | 0.00 | 29 | 1008.3 |
| 20260504180504 | 70 | 267 | 8.0 | 15.0 | 0.00 | 0.00 | 0.00 | 28 | 1008.3 |
| 20260504180014 | 69 | 278 | 12.0 | 26.0 | 0.00 | 0.00 | 0.00 | 29 | 1008.4 |
| 20260504175524 | 69 | 277 | 7.0 | 22.0 | 0.00 | 0.00 | 0.00 | 28 | 1008.4 |
| 20260504175028 | 69 | 289 | 9.0 | 20.0 | 0.00 | 0.00 | 0.00 | 28 | 1008.5 |
| 20260504174534 | 70 | 270 | 6.0 | 18.0 | 0.00 | 0.00 | 0.00 | 28 | 1008.4 |
| 20260504174008 | 69 | 257 | 6.0 | 15.0 | 0.00 | 0.00 | 0.00 | 29 | 1008.5 |
| 20260504173008 | 69 | 258 | 9.0 | 13.0 | 0.00 | 0.00 | 0.00 | 29 | 1008.6 |
| 20260504172008 | 70 | 271 | 7.0 | 20.0 | 0.00 | 0.00 | 0.00 | 28 | 1008.4 |
| 20260504171504 | 69 | 246 | 6.0 | 13.0 | 0.00 | 0.00 | 0.00 | 30 | 1008.4 |
| 20260504171009 | 69 | 269 | 7.0 | 17.0 | 0.00 | 0.00 | 0.00 | 30 | 1008.4 |
| 20260504151008 | 65 | 261 | 6.0 | 16.0 | 0.00 | 0.00 | 0.00 | 34 | 1009.8 |
| 20260504150505 | 65 | 258 | 7.0 | 17.0 | 0.00 | 0.00 | 0.00 | 34 | 1009.9 |
| 20260504141008 | 62 | 268 | 7.0 | 14.0 | 0.00 | 0.00 | 0.00 | 39 | 1010.3 |
| 20260504140504 | 62 | 286 | 9.0 | 20.0 | 0.00 | 0.00 | 0.00 | 39 | 1010.4 |
| 20260504130505 | 59 | 268 | 7.0 | 15.0 | 0.00 | 0.00 | 0.00 | 42 | 1010.8 |
| 20260504110504 | 48 | 157 | 1.0 | 3.0 | 0.00 | 0.00 | 0.00 | 56 | 1011.6 |
| 20260504100504 | 48 | 269 | 2.0 | 7.0 | 0.00 | 0.00 | 0.00 | 57 | 1011.6 |
| 20260504081506 | 48 | 284 | 2.0 | 3.0 | 0.00 | 0.00 | 0.00 | 53 | 1011.4 |
| 20260504081008 | 48 | 285 | 1.0 | 3.0 | 0.00 | 0.00 | 0.00 | 54 | 1011.4 |
| 20260504080504 | 48 | 281 | 2.0 | 3.0 | 0.00 | 0.00 | 0.00 | 53 | 1011.4 |